[[{"header":{"parameterUnit":"m.s-1","parameterCategory":2,"la1":30.2991,"la2":30.254,"lo1":-89.0895,"lo2":-89.0444,"dy":0.0017,"dx":0.0017,"nx":28,"ny":28,"refTime":"2023-08-22T21:00:00:Z","depth":"0","parameterNumber":2,"parameterNumberName":"U-component_of_CURRENTS"},"data":[0,0,0,0,0,0,0,0,0,0,0,0,0,0,0,0,0,0,0,0,0,0,0,0,0,0,0,0,0,0,0,0,0,0,0,0,0,0,0,0,0,0,0,0,0,0,0,0,0,0,0,0,0,0,0,0,0,0,0.2663,0.2664,0,0.2656,0.2656,0.2655,0.2622,0.2622,0.2622,0.2622,0.2524,0.2522,0.2519,0,0,0,0,0,0,0,0,0,0,0,0,0,0.2635,0.2635,0.2663,0.2664,0.2664,0.2657,0.2656,0.2655,0.2622,0.2622,0.2622,0.2622,0.2525,0.2522,0.2519,0,0,0,0,0,0,0,0,0,0,0,0,0,0.2632,0.2635,0.2663,0.2653,0.2652,0.2657,0.2656,0.2655,0.2622,0.2622,0.2622,0.2622,0.2526,0.2522,0.2519,0.2496,0,0,0.2507,0.2505,0,0,0,0,0,0,0,0,0.2632,0.2632,0.2654,0.2654,0.2653,0.2647,0.261,0.26,0.2622,0.2625,0.2622,0.2622,0.2562,0.2555,0.2544,0.2492,0.2488,0.2506,0.2504,0.2502,0.2501,0,0,0,0,0,0,0,0.2632,0.2632,0.2652,0.2655,0.2654,0.2645,0.2644,0.2608,0.2586,0.2625,0.2625,0.2637,0.256,0.2548,0.2542,0.2486,0.2507,0.2503,0.2501,0.2499,0.2439,0.244,0,0,0,0,0,0,0.265,0.2633,0.2653,0.2653,0.2651,0.2646,0.2645,0.2643,0.2589,0.2584,0.2637,0.2635,0.2555,0.2546,0.2538,0.2525,0.2502,0.2499,0.2497,0.2439,0.244,0.244,0,0,0,0,0,0,0.2649,0.2651,0.2653,0.265,0.265,0.2648,0.2645,0.2643,0.264,0.26,0.2591,0.264,0.2554,0.2543,0.2519,0.2521,0.2497,0.2494,0.2438,0.2439,0.244,0.2489,0,0,0,0,0,0,0.2648,0.265,0.2647,0.265,0.2652,0.2654,0.2646,0.2643,0.2651,0.2649,0.2599,0.259,0.2553,0.2525,0.2515,0.2515,0.2491,0.2437,0.2438,0.244,0.2486,0.2492,0.2496,0,0,0,0,0,0.2647,0.2644,0.2647,0.2649,0.2649,0.2655,0.2653,0.2646,0.2652,0.2644,0.2624,0.2592,0.2527,0.2523,0.2511,0.2509,0.2436,0.2438,0.244,0.2484,0.2491,0.2496,0,0,0,0,0,0,0.2621,0.2642,0.2644,0.2645,0.2652,0.2652,0.2648,0.2656,0.2634,0.2631,0.2596,0.2585,0.2565,0.2535,0.2532,0.2499,0.2478,0.2477,0.2516,0.2521,0.2526,0.2549,0.2487,0,0,0,0,0,0.2619,0.2623,0.2641,0.2639,0.2646,0.2651,0.2654,0.2654,0.2645,0.2636,0.2608,0.258,0.2561,0.2541,0.2512,0.2489,0.2494,0.2483,0.2488,0.2492,0.2504,0.2528,0.2536,0.2446,0.2446,0.2446,0,0,0.2609,0.2622,0.2623,0.2635,0.2637,0.2644,0.2649,0.2655,0.2663,0.2627,0.2614,0.2593,0.2561,0.2539,0.2528,0.2513,0.2521,0.2494,0.2498,0.2508,0.253,0.2539,0.2547,0.2447,0.2446,0.2446,0,0,0.2596,0.2602,0.2605,0.2615,0.2633,0.2638,0.2648,0.2654,0.2655,0.2648,0.2634,0.2625,0.2577,0.2564,0.2552,0.2567,0.255,0.2552,0.2585,0.2608,0.2616,0.2623,0.2645,0.2653,0.255,0.255,0.255,0,0.2581,0.2587,0.2605,0.2614,0.2622,0.2642,0.2646,0.2655,0.2651,0.2656,0.2647,0.2624,0.2593,0.2594,0.26,0.2577,0.259,0.2564,0.2616,0.2622,0.2629,0.2649,0.2658,0.2552,0.2552,0.2552,0.2551,0,0.2581,0.2581,0.2584,0.2602,0.2611,0.2616,0.2643,0.265,0.2659,0.2668,0.2676,0.2654,0.2645,0.2634,0.2619,0.2648,0.2643,0.2624,0.2603,0.2641,0.266,0.2668,0.2556,0.2555,0.2554,0.2554,0,0,0.2543,0.2577,0.2573,0.2576,0.2605,0.2608,0.2633,0.2654,0.2669,0.268,0.2695,0.2692,0.27,0.2691,0.2679,0.2698,0.2752,0.2685,0.2685,0.2711,0.281,0.2796,0.2803,0.2744,0.2746,0.2747,0.2807,0,0.2529,0.2536,0.2562,0.2561,0.2563,0.2596,0.2612,0.2638,0.2658,0.2675,0.2701,0.2703,0.2719,0.2712,0.2747,0.2744,0.2776,0.2738,0.2766,0.2767,0.2753,0.2813,0.2694,0.2736,0.2815,0.2816,0.2817,0,0.2511,0.2518,0.2519,0.2535,0.254,0.2551,0.2577,0.2597,0.2645,0.2663,0.2706,0.2721,0.277,0.2762,0.2834,0.2812,0.2827,0.283,0.2832,0.281,0.2769,0.2709,0.2748,0.268,0.2829,0.2828,0.2828,0,0.2462,0.2479,0.2476,0.2484,0.2515,0.2526,0.2545,0.2588,0.2607,0.2662,0.2678,0.2746,0.278,0.2822,0.2874,0.2849,0.2945,0.29,0.2909,0.2907,0.2806,0.2794,0.2786,0.2956,0.2955,0.2955,0.2955,0,0.2427,0.2418,0.2454,0.2453,0.2437,0.2489,0.2488,0.2522,0.258,0.2609,0.2676,0.272,0.28,0.2868,0.2892,0.2953,0.2974,0.2938,0.2931,0.282,0.2808,0.2744,0.2704,0.2958,0.2957,0.2957,0.2956,0,0.2357,0.239,0.2376,0.2408,0.2412,0.24,0.2438,0.2456,0.2525,0.2569,0.2591,0.2718,0.282,0.2897,0.2971,0.2981,0.2933,0.3029,0.2903,0.288,0.2791,0.2757,0.2656,0.2579,0.3026,0.3026,0.3026,0,0.2317,0.2309,0.2316,0.2306,0.2316,0.2317,0.2327,0.2404,0.2442,0.2569,0.2598,0.2726,0.2825,0.2954,0.299,0.3046,0.2948,0.2942,0.2868,0.2795,0.2752,0.264,0.2573,0.2752,0.275,0.2748,0.2746,0,0.2228,0.2235,0.2225,0.2204,0.221,0.2205,0.2243,0.2268,0.2386,0.2447,0.2584,0.2677,0.2844,0.2876,0.2957,0.2963,0.2786,0.2907,0.2855,0.257,0.2422,0.234,0.271,0.2731,0.2732,0.2733,0.2734,0.2735,0.2145,0.2108,0.2106,0.2081,0.2092,0.2104,0.2085,0.2169,0.2225,0.2319,0.2485,0.2578,0.2702,0.2813,0.2821,0.2736,0.2714,0.2619,0.2597,0.2501,0.2383,0.2736,0.2734,0.2735,0.2736,0.2738,0.2739,0,0.2015,0.2004,0.1985,0.1965,0.1957,0.1993,0.2032,0.2025,0.2073,0.2204,0.2309,0.2406,0.2448,0.253,0.2537,0.244,0.2317,0.2348,0.2149,0.2109,0.2445,0.2391,0.2286,0.2286,0.2286,0.2286,0.2286,0.2286,0.1949,0.189,0.189,0.1838,0.1838,0.18,0.1806,0.1824,0.1891,0.1948,0.2004,0.2103,0.2272,0.2323,0.2266,0.2204,0.2023,0.191,0.1923,0.2155,0.2177,0.2199,0.214,0.1984,0.1983,0.1483,0.148,0.1477]},{"header":{"parameterUnit":"m.s-1","parameterCategory":2,"la1":30.2991,"la2":30.254,"lo1":-89.0895,"lo2":-89.0444,"dy":0.0017,"dx":0.0017,"nx":28,"ny":28,"refTime":"2023-08-22T21:00:00:Z","depth":"0","parameterNumber":3,"parameterNumberName":"V-component_of_CURRENTS"},"data":[0,0,0,0,0,0,0,0,0,0,0,0,0,0,0,0,0,0,0,0,0,0,0,0,0,0,0,0,0,0,0,0,0,0,0,0,0,0,0,0,0,0,0,0,0,0,0,0,0,0,0,0,0,0,0,0,0,0,-0.0566,-0.0567,0,-0.0621,-0.0622,-0.0622,-0.0653,-0.0654,-0.0654,-0.0655,-0.0778,-0.078,-0.0783,0,0,0,0,0,0,0,0,0,0,0,0,0,-0.0448,-0.045,-0.0566,-0.0567,-0.0568,-0.0621,-0.0622,-0.0622,-0.0653,-0.0654,-0.0654,-0.0655,-0.0777,-0.078,-0.0784,0,0,0,0,0,0,0,0,0,0,0,0,0,-0.0498,-0.0451,-0.0566,-0.0592,-0.0595,-0.0621,-0.0622,-0.0622,-0.0653,-0.0654,-0.0654,-0.0655,-0.0776,-0.078,-0.0784,-0.0799,0,0,-0.0797,-0.0799,0,0,0,0,0,0,0,0,-0.0495,-0.0502,-0.0587,-0.059,-0.0594,-0.0634,-0.0625,-0.0686,-0.0653,-0.0628,-0.0655,-0.0655,-0.0737,-0.0745,-0.0749,-0.0805,-0.081,-0.0798,-0.08,-0.0802,-0.0803,0,0,0,0,0,0,0,-0.0492,-0.05,-0.0585,-0.0588,-0.0592,-0.0588,-0.0596,-0.0636,-0.0677,-0.063,-0.0633,-0.0644,-0.0739,-0.0744,-0.0752,-0.0812,-0.0798,-0.0801,-0.0804,-0.0806,-0.0891,-0.089,0,0,0,0,0,0,-0.0493,-0.0497,-0.0583,-0.0587,-0.0549,-0.059,-0.0599,-0.0618,-0.0676,-0.0685,-0.0644,-0.0646,-0.0736,-0.0747,-0.0757,-0.0755,-0.0802,-0.0806,-0.0809,-0.0891,-0.0891,-0.089,0,0,0,0,0,0,-0.0491,-0.0501,-0.0581,-0.0545,-0.0555,-0.0592,-0.0613,-0.0619,-0.0623,-0.0686,-0.0696,-0.0642,-0.0737,-0.075,-0.0783,-0.0761,-0.0808,-0.0812,-0.0892,-0.0891,-0.089,-0.0767,0,0,0,0,0,0,-0.0487,-0.0499,-0.0495,-0.0545,-0.0557,-0.0574,-0.0613,-0.0619,-0.063,-0.0633,-0.0688,-0.07,-0.0739,-0.0776,-0.0787,-0.0768,-0.0816,-0.0892,-0.0891,-0.0891,-0.0771,-0.0762,-0.0754,0,0,0,0,0,-0.0483,-0.0472,-0.0495,-0.0504,-0.0557,-0.0573,-0.0577,-0.0604,-0.0629,-0.0613,-0.0661,-0.0698,-0.078,-0.0779,-0.0792,-0.0774,-0.0892,-0.0891,-0.0891,-0.0775,-0.0764,-0.0754,0,0,0,0,0,0,-0.0407,-0.0476,-0.0502,-0.051,-0.0533,-0.0579,-0.0565,-0.0598,-0.0621,-0.0626,-0.0693,-0.0707,-0.0728,-0.0773,-0.077,-0.0799,-0.0843,-0.0845,-0.0751,-0.0741,-0.0732,-0.0693,-0.0819,0,0,0,0,0,-0.0394,-0.0409,-0.0466,-0.0467,-0.0477,-0.0523,-0.053,-0.0552,-0.059,-0.06,-0.0646,-0.0697,-0.0735,-0.0754,-0.0794,-0.0809,-0.0828,-0.0808,-0.08,-0.0792,-0.077,-0.0788,-0.0778,-0.0888,-0.0888,-0.0888,0,0,-0.0366,-0.0403,-0.0412,-0.0452,-0.0472,-0.0471,-0.0526,-0.0529,-0.0526,-0.0612,-0.0615,-0.0668,-0.0734,-0.0745,-0.0759,-0.0779,-0.0768,-0.0791,-0.0783,-0.0766,-0.0786,-0.0775,-0.0766,-0.0887,-0.0887,-0.0887,0,0,-0.0314,-0.035,-0.0344,-0.036,-0.0391,-0.0418,-0.0419,-0.0464,-0.0474,-0.0495,-0.0554,-0.0589,-0.0653,-0.0683,-0.0712,-0.0684,-0.0723,-0.0705,-0.0625,-0.0642,-0.0633,-0.0624,-0.0611,-0.0602,-0.0698,-0.0698,-0.0698,0,-0.0274,-0.0285,-0.0336,-0.033,-0.0333,-0.0393,-0.0373,-0.0391,-0.0439,-0.0442,-0.048,-0.0558,-0.0619,-0.0627,-0.0619,-0.066,-0.0667,-0.0654,-0.0627,-0.062,-0.0613,-0.0602,-0.0594,-0.0692,-0.0692,-0.0693,-0.0694,0,-0.0227,-0.0226,-0.0216,-0.0238,-0.024,-0.023,-0.0271,-0.0267,-0.0303,-0.0337,-0.0355,-0.0431,-0.0474,-0.0504,-0.0555,-0.0539,-0.0556,-0.0612,-0.0643,-0.0594,-0.0586,-0.058,-0.0683,-0.0685,-0.0687,-0.0688,0,0,-0.0162,-0.0182,-0.0176,-0.0163,-0.0192,-0.0185,-0.0168,-0.0171,-0.0152,-0.0206,-0.0187,-0.0265,-0.031,-0.0345,-0.0411,-0.0431,-0.0398,-0.0491,-0.0495,-0.0457,-0.0404,-0.0404,-0.0398,-0.0448,-0.0446,-0.0446,-0.0407,0,-0.0105,-0.0071,-0.0099,-0.005,-0.0032,-0.0065,-0.004,-0.0048,-0.0075,-0.0069,-0.014,-0.0165,-0.0249,-0.0269,-0.0294,-0.038,-0.038,-0.0401,-0.0475,-0.0476,-0.0466,-0.0391,-0.0365,-0.0327,-0.0401,-0.04,-0.04,0,-0.005,-0.0034,0.0019,0.0046,0.0054,0.0078,0.0115,0.0123,0.0111,0.0091,0.0062,-0.0007,-0.0038,-0.0129,-0.0202,-0.021,-0.0283,-0.0349,-0.0351,-0.0387,-0.0465,-0.0396,-0.0314,-0.0432,-0.0391,-0.0392,-0.0393,0,0.0022,0.0053,0.0102,0.0108,0.0127,0.0164,0.0175,0.0177,0.0199,0.0187,0.0195,0.014,0.0111,0.002,-0.0119,-0.0157,-0.0195,-0.0275,-0.033,-0.0331,-0.034,-0.0343,-0.0364,-0.0307,-0.0307,-0.0308,-0.0308,0,0.0086,0.0131,0.0145,0.0174,0.0248,0.0236,0.0306,0.031,0.0329,0.0363,0.0277,0.0301,0.0142,0.0087,-0.0044,-0.0145,-0.0134,-0.028,-0.0313,-0.0296,-0.0295,-0.0428,-0.0506,-0.0306,-0.0306,-0.0307,-0.0307,0,0.0157,0.016,0.0224,0.0265,0.0281,0.0335,0.038,0.0431,0.0431,0.048,0.0479,0.0435,0.0369,0.0223,0.0083,-0.0042,-0.0211,-0.0198,-0.0147,-0.0175,-0.0349,-0.042,-0.0466,-0.0518,-0.0237,-0.0237,-0.0237,0,0.0193,0.0232,0.0291,0.033,0.0352,0.0415,0.0463,0.0482,0.0532,0.0564,0.0605,0.0563,0.0561,0.0386,0.0162,-0.0015,-0.0167,-0.0131,-0.0214,-0.0316,-0.0421,-0.0481,-0.0526,-0.0169,-0.0168,-0.0167,-0.0167,0,0.0271,0.0292,0.0341,0.0413,0.0472,0.0535,0.0602,0.0661,0.0688,0.0751,0.0826,0.0834,0.0667,0.0505,0.0246,0.0103,-0.02,-0.0124,-0.025,-0.0365,-0.041,-0.049,-0.0223,-0.016,-0.0161,-0.0162,-0.0162,-0.0162,0.0331,0.0376,0.043,0.05,0.0565,0.0646,0.0711,0.0799,0.0905,0.0994,0.0995,0.1037,0.0771,0.0435,0.0235,-0.0131,-0.0161,-0.0265,-0.0336,-0.0382,-0.0449,-0.0146,-0.0123,-0.0123,-0.0123,-0.0124,-0.0124,0,0.0395,0.0435,0.0507,0.0587,0.0664,0.0683,0.0798,0.0876,0.1018,0.1114,0.1189,0.11,0.0797,0.0449,-0.0043,-0.0307,-0.0415,-0.0451,-0.0538,-0.0573,-0.0312,-0.0328,-0.0324,-0.0324,-0.0323,-0.0323,-0.0323,-0.0323,0.0431,0.0502,0.0528,0.065,0.0709,0.081,0.0879,0.1008,0.1108,0.1249,0.1291,0.1292,0.1039,0.0188,-0.04,-0.0536,-0.0728,-0.0752,-0.0866,-0.0708,-0.0697,-0.0686,-0.072,-0.0797,-0.0798,-0.1091,-0.1094,-0.1096]}],[{"header":{"parameterUnit":"m.s-1","parameterCategory":2,"la1":30.2991,"la2":30.254,"lo1":-89.0895,"lo2":-89.0444,"dy":0.0017,"dx":0.0017,"nx":28,"ny":28,"refTime":"2023-08-22T21:00:00:Z","depth":"2","parameterNumber":2,"parameterNumberName":"U-component_of_CURRENTS"},"data":[0,0,0,0,0,0,0,0,0,0,0,0,0,0,0,0,0,0,0,0,0,0,0,0,0,0,0,0,0,0,0,0,0,0,0,0,0,0,0,0,0,0,0,0,0,0,0,0,0,0,0,0,0,0,0,0,0,0,0.2323,0.2325,0,0.2382,0.2381,0.2381,0.2361,0.2361,0.2361,0.2362,0.2411,0.2412,0.2413,0,0,0,0,0,0,0,0,0,0,0,0,0,0.2253,0.2253,0.2323,0.2325,0.2327,0.2382,0.2381,0.238,0.2361,0.2361,0.2361,0.2362,0.2411,0.2412,0.2413,0,0,0,0,0,0,0,0,0,0,0,0,0,0.2278,0.2252,0.2322,0.2337,0.2341,0.2382,0.2381,0.238,0.236,0.2361,0.2362,0.2362,0.2411,0.2412,0.2413,0.2412,0,0,0.2418,0.2419,0,0,0,0,0,0,0,0,0.2276,0.2278,0.2333,0.2337,0.2341,0.238,0.2376,0.2397,0.236,0.2334,0.2362,0.2362,0.2411,0.2413,0.2397,0.2415,0.2417,0.2418,0.2419,0.242,0.242,0,0,0,0,0,0,0,0.2274,0.2276,0.2328,0.2336,0.2341,0.2364,0.2365,0.2379,0.2355,0.2336,0.2339,0.2374,0.2411,0.2396,0.2399,0.2417,0.2418,0.2419,0.242,0.2421,0.2487,0.2487,0,0,0,0,0,0,0.2299,0.2274,0.2327,0.2332,0.2329,0.2365,0.2366,0.2352,0.2355,0.2361,0.2374,0.2374,0.2393,0.2397,0.2401,0.243,0.242,0.2421,0.2422,0.2486,0.2487,0.2488,0,0,0,0,0,0,0.2296,0.2301,0.2324,0.2322,0.2329,0.2367,0.2351,0.2354,0.2352,0.2387,0.2389,0.2375,0.2393,0.2398,0.2434,0.2431,0.2422,0.2423,0.2485,0.2486,0.2487,0.247,0,0,0,0,0,0,0.2293,0.2298,0.2295,0.2321,0.233,0.2335,0.2353,0.2355,0.2381,0.2381,0.2389,0.2393,0.2394,0.2432,0.2436,0.2433,0.2424,0.2484,0.2485,0.2487,0.247,0.2471,0.2472,0,0,0,0,0,0.2289,0.2287,0.2293,0.2301,0.2322,0.2337,0.2339,0.236,0.2381,0.2361,0.2397,0.2393,0.2445,0.2435,0.2438,0.2436,0.2483,0.2485,0.2487,0.2469,0.2471,0.2472,0,0,0,0,0,0,0.2254,0.2287,0.2294,0.2299,0.2315,0.234,0.2352,0.2367,0.2374,0.2393,0.2408,0.2414,0.2438,0.245,0.2438,0.2462,0.2461,0.2464,0.2447,0.2448,0.2449,0.2444,0.2425,0,0,0,0,0,0.2249,0.2248,0.2281,0.2284,0.2298,0.2324,0.234,0.2353,0.2379,0.2382,0.2398,0.2426,0.2445,0.2459,0.2471,0.2491,0.2501,0.2493,0.2494,0.2494,0.2495,0.2515,0.2517,0.2494,0.2494,0.2494,0,0,0.2239,0.2262,0.2261,0.2278,0.2295,0.2306,0.2328,0.2355,0.2367,0.2391,0.2409,0.2429,0.2453,0.2468,0.2481,0.2481,0.2507,0.2497,0.2497,0.2498,0.2517,0.2519,0.2521,0.2495,0.2495,0.2495,0,0,0.223,0.2235,0.2236,0.2248,0.2294,0.2307,0.2319,0.2348,0.2358,0.2387,0.2411,0.2446,0.2463,0.2485,0.2498,0.252,0.2509,0.2512,0.2512,0.2531,0.2533,0.2534,0.2546,0.2548,0.2514,0.2514,0.2514,0,0.2227,0.2219,0.2238,0.2249,0.2272,0.2308,0.2316,0.2329,0.2367,0.2388,0.2395,0.2446,0.2475,0.2503,0.251,0.2522,0.2519,0.2501,0.253,0.2532,0.2534,0.2546,0.2549,0.2513,0.2513,0.2513,0.2513,0,0.2208,0.2216,0.2223,0.2239,0.2253,0.2269,0.2306,0.2324,0.2358,0.2379,0.2415,0.245,0.2484,0.2491,0.2509,0.2532,0.252,0.2525,0.2521,0.2535,0.2547,0.255,0.2512,0.2512,0.2513,0.2513,0,0,0.2178,0.2204,0.221,0.2216,0.2254,0.2262,0.2294,0.2326,0.2355,0.2383,0.241,0.2455,0.2477,0.2496,0.2515,0.2532,0.2555,0.2528,0.2529,0.2529,0.2578,0.2554,0.2556,0.2548,0.2548,0.2549,0.2579,0,0.2164,0.2172,0.2193,0.2204,0.221,0.2254,0.2274,0.2314,0.235,0.2382,0.243,0.2462,0.2475,0.2496,0.2515,0.2553,0.2563,0.2546,0.2574,0.2576,0.2544,0.2559,0.2361,0.237,0.2582,0.2583,0.2583,0,0.214,0.2151,0.2155,0.2188,0.2197,0.2212,0.2259,0.2286,0.2347,0.2378,0.2418,0.2449,0.2503,0.2503,0.256,0.2539,0.2556,0.2573,0.2575,0.2561,0.2559,0.2393,0.2368,0.2589,0.2589,0.2588,0.2588,0,0.2097,0.2129,0.213,0.2139,0.2178,0.22,0.2231,0.2288,0.2318,0.2382,0.2414,0.2459,0.2509,0.2525,0.2586,0.2566,0.2633,0.2619,0.2606,0.2604,0.2449,0.2433,0.264,0.264,0.264,0.264,0.264,0,0.2064,0.2069,0.2114,0.211,0.2127,0.2173,0.2201,0.2246,0.2308,0.2344,0.2412,0.2448,0.2515,0.2566,0.2585,0.2619,0.2642,0.2607,0.2612,0.2439,0.2422,0.2624,0.2622,0.2641,0.2641,0.264,0.264,0,0.2007,0.2035,0.2041,0.2086,0.2103,0.2118,0.218,0.2203,0.2279,0.2329,0.2354,0.2458,0.2534,0.259,0.2647,0.2638,0.2661,0.2661,0.2455,0.2435,0.2611,0.2608,0.2634,0.2634,0.2633,0.2633,0.2633,0,0.1969,0.197,0.2012,0.2019,0.2041,0.2075,0.2099,0.2176,0.2207,0.2328,0.235,0.2458,0.2517,0.2607,0.2614,0.2637,0.2672,0.2449,0.2385,0.2609,0.2611,0.2609,0.2606,0.2168,0.2163,0.216,0.2157,0,0.1904,0.1932,0.194,0.1955,0.198,0.1998,0.2046,0.2065,0.2163,0.221,0.2298,0.2362,0.2483,0.2432,0.2482,0.2463,0.243,0.2383,0.2666,0.2212,0.2175,0.2176,0.2187,0.2127,0.213,0.2133,0.2134,0.2135,0.1862,0.1856,0.1877,0.1886,0.1907,0.1916,0.1905,0.1959,0.199,0.2044,0.2171,0.2203,0.2258,0.2246,0.2197,0.2163,0.2325,0.2197,0.2204,0.2215,0.2169,0.2134,0.2069,0.2072,0.2074,0.2076,0.2078,0,0.1793,0.1799,0.1804,0.1803,0.1788,0.1834,0.1857,0.1825,0.1819,0.1902,0.1953,0.1844,0.1833,0.1893,0.181,0.1827,0.1784,0.1739,0.1647,0.1679,0.1708,0.1632,0.1391,0.1389,0.1387,0.1385,0,0,0.1758,0.1732,0.1732,0.1681,0.1686,0.1639,0.1633,0.1603,0.1623,0.1597,0.16,0.1743,0.1839,0.1578,0.1559,0.1455,0.1548,0.1404,0.1959,0.1884,0.1909,0.1987,0.191,0,0,0,0,0]},{"header":{"parameterUnit":"m.s-1","parameterCategory":2,"la1":30.2991,"la2":30.254,"lo1":-89.0895,"lo2":-89.0444,"dy":0.0017,"dx":0.0017,"nx":28,"ny":28,"refTime":"2023-08-22T21:00:00:Z","depth":"2","parameterNumber":3,"parameterNumberName":"V-component_of_CURRENTS"},"data":[0,0,0,0,0,0,0,0,0,0,0,0,0,0,0,0,0,0,0,0,0,0,0,0,0,0,0,0,0,0,0,0,0,0,0,0,0,0,0,0,0,0,0,0,0,0,0,0,0,0,0,0,0,0,0,0,0,0,0.0216,0.0215,0,0.013,0.013,0.0129,0.0097,0.0096,0.0096,0.0095,0.0039,0.0038,0.0037,0,0,0,0,0,0,0,0,0,0,0,0,0,0.0256,0.0257,0.0216,0.0214,0.0213,0.013,0.013,0.0129,0.0097,0.0096,0.0096,0.0095,0.0039,0.0038,0.0037,0,0,0,0,0,0,0,0,0,0,0,0,0,0.022,0.0257,0.0217,0.018,0.0175,0.013,0.013,0.0129,0.0097,0.0096,0.0096,0.0095,0.0039,0.0038,0.0036,0.0043,0,0,0.0032,0.0031,0,0,0,0,0,0,0,0,0.0222,0.0219,0.0187,0.0182,0.0177,0.0116,0.0122,0.0099,0.0097,0.0136,0.0095,0.0095,0.0062,0.0059,0.0056,0.004,0.0038,0.0032,0.0031,0.003,0.003,0,0,0,0,0,0,0,0.0225,0.0222,0.0191,0.0185,0.0179,0.0134,0.013,0.0118,0.0112,0.0133,0.0128,0.0105,0.0061,0.0058,0.0055,0.0037,0.0032,0.003,0.0029,0.0029,-0.0052,-0.0053,0,0,0,0,0,0,0.0224,0.0225,0.0194,0.0188,0.0188,0.0133,0.0129,0.0143,0.0111,0.0103,0.0105,0.0103,0.0061,0.0056,0.0052,0.0039,0.003,0.0029,0.0028,-0.005,-0.0052,-0.0053,0,0,0,0,0,0,0.0226,0.0224,0.0197,0.0195,0.0187,0.0134,0.015,0.0142,0.0132,0.0089,0.0082,0.0101,0.006,0.0055,0.0033,0.0037,0.0028,0.0027,-0.0049,-0.0051,-0.0053,0.0023,0,0,0,0,0,0,0.0228,0.0226,0.0224,0.0196,0.0187,0.0178,0.0149,0.014,0.0115,0.0112,0.0083,0.0077,0.0059,0.0036,0.0032,0.0034,0.0025,-0.0047,-0.005,-0.0052,0.0022,0.0024,0.0026,0,0,0,0,0,0.0231,0.0233,0.0226,0.022,0.0193,0.0178,0.0171,0.0133,0.0116,0.0122,0.009,0.0078,0.0017,0.0035,0.003,0.0032,-0.0046,-0.0049,-0.0052,0.0022,0.0024,0.0026,0,0,0,0,0,0,0.0244,0.0228,0.022,0.0217,0.0201,0.0169,0.0152,0.0135,0.0117,0.0107,0.0078,0.007,0.0051,0.0022,0.0041,-0.0006,-0.0023,-0.0026,0.0034,0.0036,0.0038,0.0062,0.0024,0,0,0,0,0,0.0247,0.0253,0.023,0.0228,0.022,0.019,0.0172,0.0156,0.0132,0.0123,0.0097,0.0059,0.0037,0.0023,-0.0002,-0.0017,-0.004,-0.0029,-0.0027,-0.0025,-0.0014,-0.0044,-0.0042,-0.0062,-0.0062,-0.0062,0,0,0.025,0.0239,0.024,0.023,0.0213,0.0212,0.0181,0.0163,0.0161,0.012,0.0104,0.0073,0.0034,0.0016,0.0003,-0.0007,-0.0035,-0.0029,-0.0026,-0.0016,-0.0046,-0.0044,-0.0042,-0.0064,-0.0064,-0.0064,0,0,0.0259,0.0255,0.0263,0.0255,0.0228,0.0216,0.0214,0.0186,0.0174,0.0159,0.0122,0.0091,0.0056,0.0027,0.001,0.0002,-0.002,-0.0016,0.0016,-0.0013,-0.001,-0.0008,-0.0034,-0.0035,-0.0019,-0.0019,-0.0019,0,0.0258,0.0273,0.0259,0.0263,0.0252,0.0224,0.0232,0.022,0.0186,0.0177,0.0159,0.0098,0.0063,0.0044,0.0036,0.0011,-0.0006,0.0022,-0.0005,-0.0004,-0.0003,-0.003,-0.0032,-0.0015,-0.0016,-0.0016,-0.0016,0,0.0283,0.0284,0.0286,0.0292,0.0286,0.0286,0.0269,0.026,0.0238,0.0218,0.0194,0.0147,0.0109,0.0087,0.0065,0.0047,0.0033,0.0011,0.0004,0.0005,-0.0026,-0.0029,-0.0011,-0.0012,-0.0013,-0.0014,0,0,0.031,0.0306,0.0306,0.0312,0.0302,0.0304,0.0304,0.0299,0.0299,0.0263,0.026,0.021,0.0179,0.0155,0.0115,0.0089,0.0073,0.0059,0.0055,0.0059,0.0019,0.0008,0.0003,0.0057,0.0056,0.0056,-0.0004,0,0.0333,0.0349,0.0342,0.0358,0.0366,0.0349,0.0357,0.0346,0.0328,0.0316,0.027,0.0249,0.0207,0.0191,0.016,0.0097,0.0068,0.0092,-0.0006,-0.0009,0.0004,0.0001,0.0025,-0.0026,-0.0007,-0.0008,-0.0008,0,0.0362,0.0367,0.039,0.0395,0.0399,0.0409,0.0418,0.0419,0.0398,0.0382,0.0355,0.0318,0.0274,0.0237,0.0147,0.0168,0.0101,0.0051,0.0047,0.0013,-0.0025,-0.0029,-0.0033,-0.0014,-0.0013,-0.0013,-0.0013,0,0.0393,0.0401,0.0422,0.0425,0.043,0.0442,0.0447,0.0438,0.0449,0.0423,0.0425,0.0367,0.0344,0.026,0.0158,0.0152,0.0063,0.0033,-0.0039,-0.0041,-0.0053,-0.0055,-0.003,-0.003,-0.003,-0.003,-0.0029,0,0.0422,0.0435,0.044,0.0452,0.0481,0.0476,0.0505,0.0497,0.0504,0.0523,0.0461,0.0471,0.0352,0.0288,0.0183,0.0071,0.0076,-0.0027,-0.0054,-0.0029,-0.0028,-0.0046,-0.0047,-0.0032,-0.0031,-0.0031,-0.0031,0,0.0448,0.0452,0.0473,0.0487,0.0495,0.0515,0.0548,0.0573,0.0567,0.0593,0.0591,0.055,0.0468,0.0343,0.0207,0.0109,-0.0007,-0.0051,-0.001,-0.0031,-0.01,-0.0097,-0.014,-0.0141,-0.0142,-0.0142,-0.0143,0,0.0463,0.0477,0.0499,0.0519,0.0527,0.0558,0.0587,0.06,0.0636,0.0649,0.0674,0.0613,0.0586,0.0387,0.0204,0.0021,-0.0006,-0.0085,-0.0101,-0.0088,-0.0111,-0.0106,-0.0102,-0.0094,-0.0094,-0.0094,-0.0094,0,0.0484,0.0491,0.0509,0.0551,0.0585,0.0628,0.0675,0.0717,0.0742,0.0774,0.0811,0.0793,0.0612,0.0447,0.0197,0.0073,-0.0055,-0.0092,-0.0089,-0.0065,-0.0048,-0.0069,-0.0066,-0.0094,-0.0094,-0.0094,-0.0094,-0.0094,0.0497,0.0511,0.0539,0.0581,0.0627,0.0697,0.0744,0.0809,0.0881,0.0928,0.0915,0.0889,0.0692,0.0386,0.0171,-0.0058,-0.0052,-0.0137,-0.0135,-0.0134,-0.0113,-0.0097,-0.0149,-0.015,-0.015,-0.015,-0.015,0,0.0506,0.0527,0.0569,0.0623,0.0684,0.0709,0.0803,0.0858,0.0953,0.0991,0.1018,0.084,0.0657,0.0426,0.0094,-0.0108,-0.0122,-0.0175,-0.0146,-0.0143,-0.0142,-0.0121,-0.016,-0.0161,-0.0162,-0.0162,0,0,0.0509,0.0543,0.0565,0.0659,0.071,0.08,0.0859,0.094,0.0996,0.1038,0.1028,0.0989,0.0728,0.0483,0.0215,0.0028,-0.0016,-0.0013,0.0018,0.0087,0.009,-0.0095,-0.0058,0,0,0,0,0]}],[{"header":{"parameterUnit":"m.s-1","parameterCategory":2,"la1":30.2991,"la2":30.254,"lo1":-89.0895,"lo2":-89.0444,"dy":0.0017,"dx":0.0017,"nx":28,"ny":28,"refTime":"2023-08-22T21:00:00:Z","depth":"4","parameterNumber":2,"parameterNumberName":"U-component_of_CURRENTS"},"data":[0,0,0,0,0,0,0,0,0,0,0,0,0,0,0,0,0,0,0,0,0,0,0,0,0,0,0,0,0,0,0,0,0,0,0,0,0,0,0,0,0,0,0,0,0,0,0,0,0,0,0,0,0,0,0,0,0,0,0.1244,0.1245,0,0.132,0.1322,0.1323,0.1389,0.1389,0.139,0.139,0.143,0.1431,0.1431,0,0,0,0,0,0,0,0,0,0,0,0,0,0.1182,0.1183,0.1244,0.1245,0.1245,0.132,0.1322,0.1323,0.1388,0.1389,0.139,0.139,0.143,0.1431,0.1431,0,0,0,0,0,0,0,0,0,0,0,0,0,0.1231,0.1183,0.1244,0.1285,0.129,0.132,0.1322,0.1323,0.1388,0.1389,0.139,0.1391,0.143,0.143,0.1431,0.1422,0,0,0.1434,0.1434,0,0,0,0,0,0,0,0,0.1228,0.1234,0.1278,0.1282,0.1287,0.1343,0.1314,0.1353,0.1388,0.1354,0.139,0.1391,0.1395,0.1399,0.1416,0.1424,0.1425,0.1434,0.1435,0.1435,0.1435,0,0,0,0,0,0,0,0.1225,0.1231,0.1277,0.1279,0.1284,0.1309,0.1317,0.1323,0.1371,0.1357,0.1361,0.1365,0.1398,0.1415,0.1417,0.1426,0.1434,0.1435,0.1435,0.1436,0.1519,0.152,0,0,0,0,0,0,0.1208,0.1227,0.1274,0.1279,0.1256,0.1309,0.1318,0.1327,0.1372,0.1379,0.1364,0.1368,0.1413,0.1416,0.1419,0.1482,0.1435,0.1436,0.1436,0.1517,0.1519,0.1521,0,0,0,0,0,0,0.1206,0.1211,0.1271,0.1253,0.1262,0.1309,0.1318,0.1328,0.1373,0.1377,0.1385,0.1403,0.1414,0.1418,0.1445,0.1481,0.1436,0.1437,0.1515,0.1518,0.152,0.1561,0,0,0,0,0,0,0.1204,0.1211,0.1231,0.1251,0.1262,0.1307,0.1318,0.1329,0.1371,0.1378,0.1412,0.1415,0.1415,0.1443,0.1446,0.1481,0.1438,0.1513,0.1516,0.1519,0.1557,0.1564,0.157,0,0,0,0,0,0.1202,0.122,0.1231,0.1238,0.1282,0.1308,0.1317,0.1354,0.1373,0.1398,0.1418,0.1416,0.1466,0.1445,0.1447,0.1484,0.1511,0.1515,0.1519,0.1554,0.1563,0.157,0,0,0,0,0,0,0.1205,0.1229,0.1242,0.1267,0.1293,0.1318,0.1349,0.1369,0.1407,0.1421,0.1425,0.143,0.1473,0.1471,0.1448,0.152,0.1493,0.1497,0.1519,0.1527,0.1534,0.1535,0.1439,0,0,0,0,0,0.1212,0.1234,0.1255,0.1279,0.1295,0.1327,0.135,0.1373,0.1398,0.1419,0.1441,0.1466,0.1486,0.15,0.1518,0.1546,0.1545,0.1576,0.1583,0.1588,0.1592,0.1616,0.1625,0.1533,0.1533,0.1533,0,0,0.1218,0.1235,0.1249,0.1282,0.1309,0.1336,0.1345,0.1386,0.1415,0.1413,0.1472,0.1489,0.1499,0.1538,0.1558,0.1543,0.1616,0.1593,0.1597,0.1599,0.1621,0.163,0.1637,0.1536,0.1535,0.1535,0,0,0.1231,0.1259,0.1282,0.1307,0.1347,0.1364,0.138,0.1422,0.1454,0.1497,0.1509,0.1543,0.1579,0.1593,0.1601,0.1653,0.1651,0.1673,0.1704,0.1727,0.1734,0.1741,0.1753,0.176,0.1674,0.1674,0.1674,0,0.124,0.127,0.1293,0.1322,0.1347,0.1378,0.1408,0.144,0.1489,0.1514,0.1524,0.1595,0.1603,0.1641,0.1666,0.1667,0.1679,0.1669,0.1734,0.174,0.1746,0.1758,0.1765,0.1677,0.1676,0.1676,0.1676,0,0.1261,0.13,0.1317,0.1361,0.139,0.1424,0.1459,0.1503,0.1543,0.1571,0.1634,0.1651,0.1692,0.1707,0.1702,0.1756,0.1751,0.1739,0.1709,0.1758,0.1767,0.1774,0.168,0.1679,0.1679,0.1678,0,0,0.1243,0.1317,0.1328,0.1358,0.1417,0.1438,0.1493,0.1544,0.1583,0.164,0.169,0.1736,0.1758,0.177,0.1777,0.1798,0.1848,0.1794,0.1794,0.1798,0.1903,0.1791,0.1788,0.1852,0.1854,0.1855,0.1893,0,0.1257,0.1312,0.1347,0.1406,0.1437,0.1487,0.1529,0.1581,0.163,0.1686,0.1722,0.1772,0.1777,0.1805,0.1831,0.1846,0.1869,0.1839,0.1863,0.1863,0.1751,0.1793,0.186,0.1898,0.1899,0.19,0.1901,0,0.1265,0.1303,0.1361,0.1432,0.1451,0.1493,0.1568,0.1612,0.1687,0.1726,0.1786,0.1816,0.1871,0.1861,0.1918,0.1904,0.1914,0.1918,0.1919,0.1804,0.1764,0.184,0.1913,0.1912,0.1911,0.1911,0.191,0,0.1232,0.1311,0.1359,0.1385,0.1467,0.1512,0.1559,0.1634,0.1673,0.176,0.18,0.1863,0.1907,0.1935,0.1961,0.195,0.201,0.1987,0.1895,0.1887,0.1956,0.1949,0.2024,0.2024,0.2024,0.2024,0.2024,0,0.1221,0.1264,0.1356,0.1384,0.1442,0.1506,0.1571,0.1628,0.1705,0.1745,0.1825,0.186,0.1932,0.1973,0.1982,0.1961,0.2031,0.1905,0.189,0.1974,0.1968,0.1961,0.1953,0.2026,0.2025,0.2025,0.2025,0,0.118,0.1242,0.1303,0.14,0.1433,0.1477,0.1573,0.1609,0.1698,0.1754,0.1786,0.1879,0.1931,0.1983,0.2026,0.1975,0.1968,0.1944,0.2038,0.2027,0.1824,0.1818,0.1833,0.1829,0.1826,0.1824,0.1822,0,0.1161,0.1192,0.1302,0.1336,0.1389,0.1462,0.1503,0.1597,0.163,0.1745,0.176,0.1851,0.19,0.1873,0.1936,0.1943,0.1923,0.1903,0.1853,0.1821,0.1806,0.1805,0.1803,0.1817,0.1816,0.1815,0.1814,0,0.1125,0.118,0.1228,0.1294,0.1352,0.1394,0.1466,0.1476,0.1573,0.1669,0.1687,0.171,0.1766,0.1796,0.1822,0.1821,0.1902,0.1871,0.1876,0.1829,0.1801,0.1789,0.1791,0.1804,0.1805,0.1806,0.1807,0,0.1103,0.1124,0.1192,0.1237,0.1296,0.1305,0.1352,0.1387,0.1427,0.155,0.1552,0.165,0.1741,0.1734,0.1755,0.1751,0.172,0.1652,0.1668,0.1681,0.1614,0.1556,0.1474,0,0,0,0,0,0.107,0.1081,0.1122,0.1158,0.1206,0.1237,0.1312,0.1357,0.1451,0.1423,0.148,0.152,0.1547,0.1602,0.1568,0.1697,0.1733,0.1649,0.1666,0.1746,0.1758,0.1694,0,0,0,0,0,0,0.1047,0.1089,0.1096,0.1075,0.108,0.1116,0.1158,0.1224,0.1215,0.132,0.1347,0.1428,0.1486,0.1551,0.1538,0.1555,0.1533,0.1715,0.1711,0.1739,0.175,0.1759,0.1698,0,0,0,0,0]},{"header":{"parameterUnit":"m.s-1","parameterCategory":2,"la1":30.2991,"la2":30.254,"lo1":-89.0895,"lo2":-89.0444,"dy":0.0017,"dx":0.0017,"nx":28,"ny":28,"refTime":"2023-08-22T21:00:00:Z","depth":"4","parameterNumber":3,"parameterNumberName":"V-component_of_CURRENTS"},"data":[0,0,0,0,0,0,0,0,0,0,0,0,0,0,0,0,0,0,0,0,0,0,0,0,0,0,0,0,0,0,0,0,0,0,0,0,0,0,0,0,0,0,0,0,0,0,0,0,0,0,0,0,0,0,0,0,0,0,0.0324,0.0324,0,0.0315,0.0314,0.0314,0.031,0.031,0.031,0.031,0.0321,0.0321,0.0321,0,0,0,0,0,0,0,0,0,0,0,0,0,0.0321,0.0321,0.0324,0.0324,0.0324,0.0315,0.0314,0.0314,0.031,0.031,0.031,0.031,0.0321,0.0321,0.0321,0,0,0,0,0,0,0,0,0,0,0,0,0,0.0317,0.0321,0.0324,0.0322,0.0322,0.0315,0.0314,0.0314,0.0309,0.031,0.031,0.031,0.0321,0.0321,0.0321,0.0317,0,0,0.0322,0.0322,0,0,0,0,0,0,0,0,0.0317,0.0317,0.0322,0.0322,0.0322,0.0315,0.0318,0.0317,0.0309,0.0312,0.031,0.031,0.0322,0.0322,0.0317,0.0318,0.0318,0.0322,0.0322,0.0322,0.0322,0,0,0,0,0,0,0,0.0317,0.0317,0.0318,0.0322,0.0322,0.0316,0.0316,0.0317,0.0315,0.0312,0.0312,0.0314,0.0322,0.0317,0.0317,0.0319,0.0322,0.0322,0.0322,0.0322,0.0315,0.0315,0,0,0,0,0,0,0.0323,0.0317,0.0319,0.0318,0.0322,0.0316,0.0316,0.0316,0.0314,0.0315,0.0314,0.0314,0.0316,0.0317,0.0318,0.0318,0.0322,0.0322,0.0322,0.0316,0.0315,0.0315,0,0,0,0,0,0,0.0323,0.0323,0.0319,0.0319,0.0319,0.0316,0.0316,0.0315,0.0315,0.0316,0.0316,0.0315,0.0316,0.0317,0.0323,0.0318,0.0322,0.0323,0.0316,0.0316,0.0315,0.0315,0,0,0,0,0,0,0.0323,0.0323,0.0323,0.0319,0.0319,0.0315,0.0316,0.0315,0.0316,0.0316,0.0317,0.0318,0.0317,0.0323,0.0324,0.0318,0.0323,0.0316,0.0316,0.0315,0.0315,0.0315,0.0314,0,0,0,0,0,0.0322,0.0322,0.0323,0.0323,0.032,0.0315,0.0314,0.0312,0.0316,0.0313,0.0318,0.0318,0.0319,0.0323,0.0324,0.0319,0.0317,0.0316,0.0315,0.0316,0.0315,0.0314,0,0,0,0,0,0,0.0318,0.0321,0.0322,0.0322,0.032,0.0315,0.0314,0.0315,0.0315,0.0319,0.032,0.0321,0.0321,0.0321,0.0325,0.0314,0.0316,0.0315,0.0316,0.0315,0.0314,0.0313,0.0323,0,0,0,0,0,0.0318,0.0321,0.032,0.032,0.032,0.0319,0.0317,0.0317,0.0318,0.0318,0.0317,0.0317,0.0316,0.0318,0.0315,0.0315,0.0298,0.0309,0.0309,0.0308,0.0306,0.0274,0.027,0.0313,0.0313,0.0313,0,0,0.0319,0.032,0.0322,0.032,0.0319,0.0319,0.0318,0.0318,0.0319,0.032,0.032,0.0316,0.0316,0.0311,0.0311,0.0313,0.0286,0.0307,0.0307,0.0305,0.0273,0.0269,0.0265,0.0312,0.0312,0.0312,0,0,0.0321,0.0321,0.0324,0.0322,0.0323,0.0322,0.0324,0.032,0.0319,0.032,0.0318,0.0312,0.0313,0.0305,0.0305,0.0299,0.0282,0.0297,0.0294,0.0262,0.0258,0.0255,0.0223,0.0217,0.0297,0.0297,0.0297,0,0.0321,0.0325,0.0323,0.0324,0.0327,0.0325,0.0328,0.0324,0.0322,0.032,0.0321,0.0309,0.0308,0.0301,0.0297,0.0297,0.0275,0.0299,0.0261,0.0257,0.0253,0.0222,0.0215,0.0297,0.0297,0.0297,0.0297,0,0.0325,0.0327,0.0329,0.0332,0.0332,0.0334,0.0333,0.033,0.0332,0.0324,0.0315,0.0307,0.03,0.0294,0.0296,0.027,0.0262,0.0263,0.0263,0.0249,0.0217,0.0209,0.0297,0.0297,0.0297,0.0297,0,0,0.0331,0.0332,0.0334,0.0339,0.0338,0.0341,0.0342,0.0339,0.0342,0.0326,0.0323,0.0307,0.0297,0.0295,0.0288,0.0259,0.0215,0.0251,0.0249,0.0219,0.0139,0.0138,0.013,0.0207,0.0205,0.0204,0.0126,0,0.0337,0.0343,0.0343,0.0352,0.0355,0.0354,0.0357,0.0353,0.0349,0.0341,0.032,0.0316,0.0299,0.0301,0.0266,0.0235,0.0196,0.0236,0.0157,0.0155,0.0156,0.0121,0.0201,0.012,0.0118,0.0117,0.0116,0,0.0342,0.0347,0.0358,0.0366,0.0368,0.0376,0.0385,0.0385,0.0371,0.0366,0.0345,0.0332,0.0297,0.0286,0.0204,0.0229,0.018,0.0147,0.0143,0.0137,0.014,0.0138,0.0103,0.0104,0.0105,0.0106,0.0106,0,0.0352,0.0358,0.0371,0.0373,0.038,0.039,0.0398,0.0393,0.0403,0.0383,0.0386,0.0335,0.0327,0.0251,0.0188,0.0191,0.0092,0.0091,0.0036,0.0035,0.0062,0.0066,0.0015,0.0015,0.0015,0.0016,0.0016,0,0.0356,0.0366,0.0379,0.0386,0.0405,0.0407,0.0428,0.0425,0.0431,0.0442,0.0402,0.0402,0.0317,0.026,0.0183,0.0089,0.0085,0.0023,0.001,0.0063,0.0069,0.0056,0.0062,0.0013,0.0013,0.0014,0.0014,0,0.0359,0.0368,0.0382,0.0399,0.041,0.0424,0.0458,0.0474,0.0473,0.0488,0.0488,0.045,0.0374,0.0279,0.0165,0.0097,0.0002,-0.0033,0.0028,0.0022,-0.0037,-0.0031,-0.0112,-0.0113,-0.0114,-0.0115,-0.0115,0,0.0358,0.0367,0.0395,0.0412,0.0424,0.0451,0.0476,0.0492,0.0516,0.0521,0.0532,0.0475,0.0433,0.0269,0.0165,0.0002,-0.0017,-0.0076,-0.0065,-0.0049,-0.0053,-0.0045,-0.0038,-0.0116,-0.0116,-0.0116,-0.0117,0,0.0354,0.0369,0.0383,0.0422,0.0454,0.0489,0.0528,0.055,0.0573,0.0574,0.0566,0.0488,0.0401,0.0276,0.0151,0.0038,-0.0043,-0.0084,-0.0083,-0.0073,-0.0054,-0.0056,-0.0047,-0.0119,-0.0119,-0.0118,-0.0118,0,0.0353,0.0362,0.0391,0.0424,0.0471,0.0519,0.0536,0.0569,0.0592,0.0601,0.0599,0.0507,0.0459,0.0295,0.0183,0.0067,0.0035,-0.0008,-0.0012,-0.0011,0.0044,0.0085,0.0041,0,0,0,0,0,0.0345,0.036,0.0392,0.0434,0.0486,0.0517,0.0571,0.059,0.0615,0.0612,0.0608,0.0528,0.037,0.0309,0.0192,0.0158,0.0007,0.0015,-0.0047,-0.0132,-0.0129,-0.0082,0,0,0,0,0,0,0.034,0.0367,0.0385,0.0443,0.0478,0.0539,0.0576,0.0594,0.0597,0.0604,0.0527,0.049,0.034,0.0435,0.0188,0.0154,0.0096,-0.0056,-0.0058,-0.0134,-0.0131,-0.0129,-0.0079,0,0,0,0,0]}]]